Weather History for K2J9 - August, 2014

Change the Weather History Date:

Saturday, August 30, 2014

  Actual Average (KTLH) Record (KTLH)
Temperature  
Mean Temperature 88 °F 81 °F  
Max Temperature 104 °F 91 °F 100 °F (1933)
Min Temperature 73 °F 72 °F 61 °F (1986)
Degree Days  
Heating Degree Days 0    
Month to date heating degree days  
Since 1 June heating degree days  
Since 1 July heating degree days  
Cooling Degree Days 24    
Month to date cooling degree days  
Year to date cooling degree days  
Since 1 June cooling degree days  
Growing Degree Days 38 (Base 50)    
Moisture  
Dew Point 74 °F    
Average Humidity 77    
Maximum Humidity 100    
Minimum Humidity 35    
Precipitation  
Precipitation 0.00 in 0.19 in 3.50 in (1911)
Month to date precipitation 7.17  
Year to date precipitation 43.73  
Sea Level Pressure  
Sea Level Pressure 30.11 in    
Wind  
Wind Speed 1 mph (SSE)    
Max Wind Speed 9 mph    
Max Gust Speed -    
Visibility 7 miles    
Events      
T = Trace of Precipitation, MM = Missing Value Source: NWS Daily Summary

Daily Weather History Graph

Daily Weather History Graph

Search for Another Location

Airport or City:

Trip Planner

Search our weather history database for the weather conditions in past years. The results will help you decide how hot, cold, wet, or windy it might be!

Date:

Astronomy

Aug. 30, 2014 Rise Set
Actual Time 7:13 AM EDT 8:03 PM EDT
Civil Twilight 6:49 AM EDT 8:28 PM EDT
Nautical Twilight 6:19 AM EDT 8:57 PM EDT
Astronomical Twilight 5:50 AM EDT 9:26 PM EDT
Moon 11:38 AM EDT (8/30) 11:00 PM EDT (8/30)
Length of Visible Light 13h 39m
Length of Day
12h 49m
Waxing Crescent, 23% of the Moon is Illuminated
Aug 30
Waxing Crescent
Sep 2
First Quarter
Sep 8
Full
Sep 15
Last Quarter
Sep 24
New

Hourly Weather History & Observations

Time (EDT) Temp. Heat Index Dew Point Humidity Pressure Visibility Wind Dir Wind Speed Gust Speed Precip Events Conditions
12:15 AM 75.2 °F - 75.2 °F 100% 30.10 in 9.0 mi Calm Calm - N/A   Overcast
12:35 AM 75.2 °F - 75.2 °F 100% 30.10 in 9.0 mi Calm Calm - N/A   Overcast
12:55 AM 75.2 °F - 73.4 °F 94% 30.11 in 7.0 mi Calm Calm - N/A   Overcast
1:15 AM 75.2 °F - 73.4 °F 94% 30.11 in 7.0 mi Calm Calm - N/A   Overcast
1:35 AM 73.4 °F - 73.4 °F 100% 30.11 in 7.0 mi Calm Calm - N/A   Overcast
1:55 AM 75.2 °F - 75.2 °F 100% 30.12 in 2.5 mi Calm Calm - N/A   Overcast
2:15 AM 75.2 °F - 75.2 °F 100% 30.12 in 1.2 mi Calm Calm - N/A   Overcast
2:35 AM 75.2 °F - 75.2 °F 100% 30.12 in 0.2 mi Calm Calm - N/A   Overcast
2:55 AM 75.2 °F - 75.2 °F 100% 30.11 in 0.2 mi Calm Calm - N/A   Overcast
3:15 AM 75.2 °F - 75.2 °F 100% 30.11 in 0.5 mi Calm Calm - N/A   Overcast
3:35 AM 75.2 °F - 75.2 °F 100% 30.11 in 1.5 mi Calm Calm - N/A   Overcast
3:55 AM 73.4 °F - 73.4 °F 100% 30.11 in 0.8 mi Calm Calm - N/A   Overcast
4:15 AM 73.4 °F - 73.4 °F 100% 30.11 in 3.0 mi Calm Calm - N/A   Mostly Cloudy
4:55 AM 75.2 °F - 75.2 °F 100% 30.10 in 0.5 mi Calm Calm - N/A   Overcast
5:15 AM 73.4 °F - 73.4 °F 100% 30.11 in 0.2 mi Calm Calm - N/A   Overcast
5:35 AM 75.2 °F - 75.2 °F 100% 30.11 in 0.2 mi Calm Calm - N/A   Overcast
5:55 AM 75.2 °F - 75.2 °F 100% 30.12 in 0.2 mi Calm Calm - N/A   Overcast
6:15 AM 75.2 °F - 75.2 °F 100% 30.12 in 0.2 mi Calm Calm - N/A   Overcast
6:55 AM 73.4 °F - 73.4 °F 100% 30.12 in 0.2 mi Calm Calm - N/A   Overcast
7:15 AM 73.4 °F - 73.4 °F 100% 30.13 in 0.2 mi Calm Calm - N/A   Overcast
7:35 AM 75.2 °F - 75.2 °F 100% 30.13 in 0.2 mi Calm Calm - N/A   Overcast
7:55 AM 75.2 °F - 75.2 °F 100% 30.14 in 0.2 mi Calm Calm - N/A   Overcast
8:15 AM 75.2 °F - 75.2 °F 100% 30.14 in 0.2 mi Calm Calm - N/A   Overcast
8:35 AM 77.0 °F - 77.0 °F 100% 30.14 in 0.5 mi Calm Calm - N/A   Overcast
8:55 AM 78.8 °F - 78.8 °F 100% 30.15 in 2.0 mi Calm Calm - N/A   Overcast
9:15 AM 80.6 °F 89.3 °F 80.6 °F 100% 30.15 in 4.0 mi Calm Calm - N/A   Overcast
9:35 AM 82.4 °F 96.1 °F 82.4 °F 100% 30.15 in 9.0 mi Calm Calm - N/A   Overcast
9:55 AM 82.4 °F 94.0 °F 80.6 °F 94% 30.15 in 10.0 mi Calm Calm - N/A   Overcast
10:15 AM 86.0 °F 104.7 °F 82.4 °F 89% 30.15 in 10.0 mi Calm Calm - N/A   Mostly Cloudy
10:55 AM 89.6 °F 99.8 °F 75.2 °F 62% 30.16 in 10.0 mi Calm Calm - N/A   Scattered Clouds
11:15 AM 89.6 °F 99.8 °F 75.2 °F 62% 30.16 in 10.0 mi Calm Calm - N/A   Mostly Cloudy
11:35 AM 95.0 °F 107.4 °F 75.2 °F 53% 30.16 in 10.0 mi Calm Calm - N/A   Scattered Clouds
11:55 AM 93.2 °F 105.0 °F 75.2 °F 56% 30.15 in 10.0 mi Calm Calm - N/A   Mostly Cloudy
12:15 PM 93.2 °F 102.4 °F 73.4 °F 52% 30.15 in 10.0 mi Calm Calm - N/A   Mostly Cloudy
12:35 PM 93.2 °F 102.4 °F 73.4 °F 52% 30.14 in 10.0 mi Calm Calm - N/A   Mostly Cloudy
12:55 PM 96.8 °F 107.3 °F 73.4 °F 47% 30.13 in 10.0 mi East 3.5 mph - N/A   Mostly Cloudy
1:15 PM 95.0 °F 104.5 °F 73.4 °F 49% 30.13 in 10.0 mi SSE 5.8 mph - N/A   Mostly Cloudy
1:35 PM 98.6 °F 109.2 °F 73.4 °F 44% 30.12 in 10.0 mi East 5.8 mph - N/A   Scattered Clouds
2:35 PM 102.2 °F 110.0 °F 69.8 °F 35% 30.09 in 10.0 mi SSW 4.6 mph - N/A   Mostly Cloudy
2:55 PM 104.0 °F 114.0 °F 71.6 °F 35% 30.08 in 10.0 mi SE 6.9 mph - N/A   Mostly Cloudy
3:15 PM 98.6 °F 109.2 °F 73.4 °F 44% 30.08 in 10.0 mi East 5.8 mph - N/A   Mostly Cloudy
3:35 PM 98.6 °F 109.2 °F 73.4 °F 44% 30.07 in 10.0 mi East 8.1 mph - N/A   Scattered Clouds
3:55 PM 102.2 °F 114.4 °F 73.4 °F 40% 30.07 in 10.0 mi ESE 5.8 mph - N/A   Clear
4:15 PM 102.2 °F 114.4 °F 73.4 °F 40% 30.06 in 10.0 mi SSE 8.1 mph - N/A   Partly Cloudy
4:35 PM 100.4 °F 109.3 °F 71.6 °F 39% 30.06 in 10.0 mi SSE 9.2 mph - N/A   Partly Cloudy
4:55 PM 96.8 °F 105.1 °F 71.6 °F 44% 30.06 in 10.0 mi SSE 8.1 mph - N/A   Clear
5:15 PM 98.6 °F 109.2 °F 73.4 °F 44% 30.06 in 10.0 mi SSE 9.2 mph - N/A   Scattered Clouds
5:35 PM 96.8 °F 107.3 °F 73.4 °F 47% 30.06 in 10.0 mi Calm Calm - N/A   Mostly Cloudy
5:55 PM 95.0 °F 104.5 °F 73.4 °F 49% 30.06 in 10.0 mi SSW 9.2 mph - N/A   Overcast
6:15 PM 93.2 °F 102.4 °F 73.4 °F 52% 30.07 in 10.0 mi SW 8.1 mph - N/A   Scattered Clouds
6:35 PM 89.6 °F 98.2 °F 73.4 °F 59% 30.08 in 10.0 mi SW 4.6 mph - N/A   Clear
6:55 PM 89.6 °F 98.2 °F 73.4 °F 59% 30.09 in 10.0 mi West 8.1 mph - N/A   Partly Cloudy
7:15 PM 86.0 °F 93.4 °F 73.4 °F 66% 30.09 in 10.0 mi West 8.1 mph - N/A   Partly Cloudy
7:35 PM 84.2 °F 89.6 °F 71.6 °F 66% 30.09 in 10.0 mi Calm Calm - N/A   Clear
7:55 PM 82.4 °F 87.2 °F 71.6 °F 70% 30.09 in 10.0 mi Calm Calm - N/A   Clear
8:15 PM 80.6 °F 84.6 °F 71.6 °F 74% 30.10 in 10.0 mi WNW 4.6 mph - N/A   Clear
8:35 PM 80.6 °F 83.9 °F 69.8 °F 70% 30.10 in 10.0 mi Calm Calm - N/A   Partly Cloudy
8:55 PM 78.8 °F - 69.8 °F 74% 30.11 in 10.0 mi Calm Calm - N/A   Scattered Clouds
9:15 PM 78.8 °F - 69.8 °F 74% 30.12 in 10.0 mi Calm Calm - N/A   Partly Cloudy
9:35 PM 77.0 °F - 71.6 °F 83% 30.12 in 10.0 mi Calm Calm - N/A   Partly Cloudy
10:15 PM 77.0 °F - 71.6 °F 83% 30.13 in 10.0 mi Calm Calm - N/A   Partly Cloudy
10:55 PM 75.2 °F - 71.6 °F 89% 30.14 in 10.0 mi Calm Calm - N/A   Clear
11:15 PM 75.2 °F - 71.6 °F 89% 30.14 in 10.0 mi Calm Calm - N/A   Partly Cloudy
11:35 PM 75.2 °F - 71.6 °F 89% 30.14 in 10.0 mi Calm Calm - N/A   Clear
11:55 PM 75.2 °F - 71.6 °F 89% 30.14 in 10.0 mi Calm Calm - N/A   Clear